| time (UTC) | temp F | wind direction | speed MPH | gust MPH | rain 1hr in | rain 24hr in | rain mn in | humidity % | barometer mb |
| 20260507070404 | 57 | 105 | 1.0 | 2.0 | 0.00 | 0.00 | 0.00 | 73 | 1016.2 |
| 20260507065904 | 57 | 105 | 1.0 | 2.0 | 0.00 | 0.00 | 0.00 | 73 | 1016.2 |
| 20260507065404 | 57 | 105 | 1.0 | 2.0 | 0.00 | 0.00 | 0.00 | 72 | 1016.2 |
| 20260507064903 | 57 | 105 | 0.0 | 2.0 | 0.00 | 0.00 | 0.00 | 71 | 1016.3 |
| 20260507064404 | 57 | 105 | 0.0 | 2.0 | 0.00 | 0.00 | 0.00 | 72 | 1016.2 |
| 20260507063901 | 58 | 105 | 1.0 | 2.0 | 0.00 | 0.00 | 0.00 | 72 | 1016.2 |
| 20260507063402 | 58 | 105 | 1.0 | 2.0 | 0.00 | 0.00 | 0.00 | 71 | 1016.3 |
| 20260507062905 | 58 | 12 | 0.0 | 1.0 | 0.00 | 0.00 | 0.00 | 71 | 1016.3 |
| 20260507062402 | 58 | 11 | 0.0 | 2.0 | 0.00 | 0.00 | 0.00 | 70 | 1016.2 |
| 20260507061902 | 58 | 11 | 0.0 | 2.0 | 0.00 | 0.00 | 0.00 | 70 | 1016.2 |
| 20260507061657 | 58 | 11 | 1.0 | 2.0 | 0.00 | 0.00 | 0.00 | 70 | 1016.3 |
| 20260507061403 | 58 | 11 | 0.0 | 2.0 | 0.00 | 0.00 | 0.00 | 70 | 1016.2 |
| 20260507061358 | 59 | 144 | 0.0 | 1.0 | 0.00 | 0.00 | 0.00 | 69 | 1016.3 |
| 20260507061034 | 58 | 11 | 1.0 | 2.0 | 0.00 | 0.00 | 0.00 | 70 | 1016.3 |
| 20260507060224 | 59 | 13 | 0.0 | 2.0 | 0.00 | 0.00 | 0.00 | 69 | 1016.3 |
| 20260507054903 | 59 | 144 | 0.0 | 3.0 | 0.00 | 0.00 | 0.00 | 69 | 1016.4 |
| 20260507054653 | 59 | 144 | 1.0 | 3.0 | 0.00 | 0.00 | 0.00 | 69 | 1016.4 |
| 20260507053903 | 59 | 144 | 2.0 | 6.0 | 0.00 | 0.00 | 0.00 | 69 | 1016.4 |
| 20260507053404 | 59 | 139 | 2.0 | 6.0 | 0.00 | 0.00 | 0.00 | 69 | 1016.4 |
| 20260507052903 | 59 | 82 | 3.0 | 6.0 | 0.00 | 0.00 | 0.00 | 69 | 1016.4 |
| 20260507052403 | 60 | 95 | 2.0 | 6.0 | 0.00 | 0.00 | 0.00 | 68 | 1016.3 |
| 20260507051904 | 60 | 90 | 2.0 | 6.0 | 0.00 | 0.00 | 0.00 | 68 | 1016.4 |
| 20260507051659 | 60 | 140 | 2.0 | 6.0 | 0.00 | 0.00 | 0.00 | 67 | 1016.3 |
| 20260507050902 | 60 | 119 | 3.0 | 6.0 | 0.00 | 0.00 | 0.00 | 67 | 1016.4 |
| 20260507050403 | 60 | 104 | 3.0 | 6.0 | 0.00 | 0.00 | 0.00 | 67 | 1016.4 |
| 20260507045902 | 60 | 106 | 3.0 | 6.0 | 0.00 | 0.00 | 0.00 | 66 | 1016.3 |
| 20260507045402 | 60 | 103 | 3.0 | 6.0 | 0.00 | 0.00 | 0.00 | 66 | 1016.3 |
| 20260507044902 | 61 | 111 | 3.0 | 6.0 | 0.00 | 0.00 | 0.00 | 65 | 1016.3 |
| 20260507044653 | 61 | 88 | 2.0 | 6.0 | 0.00 | 0.00 | 0.00 | 65 | 1016.3 |
| 20260507043902 | 61 | 93 | 2.0 | 4.0 | 0.00 | 0.00 | 0.00 | 64 | 1016.3 |
| 20260507043402 | 62 | 105 | 2.0 | 4.0 | 0.00 | 0.00 | 0.00 | 64 | 1016.2 |
| 20260507043204 | 62 | 132 | 2.0 | 8.0 | 0.00 | 0.00 | 0.00 | 63 | 1016.2 |
| 20260507042401 | 62 | 126 | 2.0 | 8.0 | 0.00 | 0.00 | 0.00 | 63 | 1016.1 |
| 20260507041901 | 62 | 132 | 3.0 | 8.0 | 0.00 | 0.00 | 0.00 | 63 | 1016.1 |
| 20260507041755 | 63 | 140 | 3.0 | 7.0 | 0.00 | 0.00 | 0.00 | 62 | 1016.0 |
| 20260507041441 | 62 | 129 | 3.0 | 8.0 | 0.00 | 0.00 | 0.00 | 63 | 1016.0 |
| 20260507040403 | 63 | 137 | 3.0 | 7.0 | 0.00 | 0.00 | 0.00 | 62 | 1015.9 |
| 20260507035902 | 63 | 119 | 2.0 | 6.0 | 0.00 | 0.00 | 0.00 | 61 | 1016.0 |
| 20260507035402 | 63 | 127 | 2.0 | 6.0 | 0.00 | 0.00 | 0.00 | 61 | 1015.9 |
| 20260507034903 | 64 | 107 | 2.0 | 6.0 | 0.00 | 0.00 | 0.00 | 61 | 1015.8 |
| 20260507034403 | 64 | 128 | 2.0 | 6.0 | 0.00 | 0.00 | 0.00 | 60 | 1015.8 |
| 20260507033902 | 64 | 129 | 3.0 | 6.0 | 0.00 | 0.00 | 0.00 | 60 | 1015.7 |
| 20260507033402 | 64 | 136 | 4.0 | 9.0 | 0.00 | 0.00 | 0.00 | 59 | 1015.7 |
| 20260507032902 | 64 | 164 | 5.0 | 9.0 | 0.00 | 0.00 | 0.00 | 59 | 1015.6 |
| 20260507032401 | 65 | 159 | 5.0 | 10.0 | 0.00 | 0.00 | 0.00 | 59 | 1015.5 |
| 20260507031903 | 65 | 157 | 5.0 | 10.0 | 0.00 | 0.00 | 0.00 | 58 | 1015.5 |
| 20260507031403 | 65 | 161 | 5.0 | 9.0 | 0.00 | 0.00 | 0.00 | 58 | 1015.4 |
| 20260507030901 | 66 | 137 | 5.0 | 9.0 | 0.00 | 0.00 | 0.00 | 58 | 1015.4 |
| 20260507030456 | 66 | 152 | 4.0 | 9.0 | 0.00 | 0.00 | 0.00 | 57 | 1015.2 |
| 20260507030436 | 66 | 141 | 5.0 | 9.0 | 0.00 | 0.00 | 0.00 | 57 | 1015.2 |
| 20260507025402 | 67 | 146 | 4.0 | 9.0 | 0.00 | 0.00 | 0.00 | 57 | 1015.1 |
| 20260507024901 | 67 | 161 | 5.0 | 10.0 | 0.00 | 0.00 | 0.00 | 56 | 1015.1 |
| 20260507024403 | 67 | 150 | 6.0 | 10.0 | 0.00 | 0.00 | 0.00 | 56 | 1015.0 |
| 20260507023901 | 68 | 166 | 5.0 | 9.0 | 0.00 | 0.00 | 0.00 | 55 | 1014.9 |
| 20260507023659 | 68 | 178 | 4.0 | 9.0 | 0.00 | 0.00 | 0.00 | 55 | 1014.9 |
| 20260507022901 | 69 | 136 | 4.0 | 10.0 | 0.00 | 0.00 | 0.00 | 54 | 1014.9 |
| 20260507022659 | 69 | 142 | 4.0 | 10.0 | 0.00 | 0.00 | 0.00 | 53 | 1014.8 |
| 20260507021901 | 70 | 167 | 4.0 | 10.0 | 0.00 | 0.00 | 0.00 | 53 | 1014.7 |
| 20260507021401 | 70 | 153 | 5.0 | 10.0 | 0.00 | 0.00 | 0.00 | 52 | 1014.5 |
| 20260507021203 | 71 | 162 | 5.0 | 10.0 | 0.00 | 0.00 | 0.00 | 52 | 1014.6 |
| 20260507020402 | 71 | 172 | 5.0 | 10.0 | 0.00 | 0.00 | 0.00 | 51 | 1014.6 |
| 20260507015903 | 71 | 180 | 6.0 | 10.0 | 0.00 | 0.00 | 0.00 | 51 | 1014.5 |
| 20260507015402 | 72 | 156 | 4.0 | 10.0 | 0.00 | 0.00 | 0.00 | 51 | 1014.3 |
| 20260507014904 | 72 | 207 | 3.0 | 10.0 | 0.00 | 0.00 | 0.00 | 51 | 1014.3 |
| 20260507014404 | 72 | 87 | 5.0 | 13.0 | 0.00 | 0.00 | 0.00 | 51 | 1014.3 |
| 20260507013904 | 72 | 196 | 6.0 | 13.0 | 0.00 | 0.00 | 0.00 | 51 | 1014.3 |
| 20260507013455 | 73 | 144 | 6.0 | 15.0 | 0.00 | 0.00 | 0.00 | 50 | 1014.1 |
| 20260507013440 | 73 | 173 | 6.0 | 12.0 | 0.00 | 0.00 | 0.00 | 50 | 1014.2 |
| 20260507012701 | 73 | 131 | 5.0 | 15.0 | 0.00 | 0.00 | 0.00 | 49 | 1014.1 |
| 20260507012201 | 74 | 173 | 7.0 | 15.0 | 0.00 | 0.00 | 0.00 | 49 | 1014.1 |
| 20260507011403 | 74 | 190 | 10.0 | 18.0 | 0.00 | 0.00 | 0.00 | 48 | 1014.0 |
| 20260507010902 | 74 | 161 | 10.0 | 19.0 | 0.00 | 0.00 | 0.00 | 48 | 1013.9 |
| 20260507010703 | 76 | 165 | 7.0 | 19.0 | 0.00 | 0.00 | 0.00 | 46 | 1013.9 |
| 20260507005902 | 76 | 165 | 4.0 | 13.0 | 0.00 | 0.00 | 0.00 | 46 | 1013.8 |
| 20260507005402 | 77 | 169 | 4.0 | 13.0 | 0.00 | 0.00 | 0.00 | 45 | 1013.9 |
| 20260507004903 | 77 | 242 | 5.0 | 15.0 | 0.00 | 0.00 | 0.00 | 45 | 1013.9 |
| 20260507004402 | 78 | 217 | 4.0 | 15.0 | 0.00 | 0.00 | 0.00 | 44 | 1013.8 |
| 20260507003904 | 78 | 5 | 3.0 | 9.0 | 0.00 | 0.00 | 0.00 | 44 | 1013.8 |
| 20260507003408 | 78 | 230 | 2.0 | 9.0 | 0.00 | 0.00 | 0.00 | 43 | 1013.8 |
| 20260507002903 | 78 | 135 | 2.0 | 12.0 | 0.00 | 0.00 | 0.00 | 40 | 1013.8 |
| 20260507002654 | 78 | 9 | 4.0 | 12.0 | 0.00 | 0.00 | 0.00 | 36 | 1013.7 |
| 20260507001902 | 78 | 130 | 6.0 | 12.0 | 0.00 | 0.00 | 0.00 | 37 | 1013.6 |
| 20260507001701 | 78 | 5 | 5.0 | 13.0 | 0.00 | 0.00 | 0.00 | 36 | 1013.6 |
| 20260507000903 | 78 | 355 | 5.0 | 13.0 | 0.00 | 0.00 | 0.00 | 36 | 1013.5 |
| 20260507000405 | 78 | 5 | 7.0 | 13.0 | 0.00 | 0.00 | 0.00 | 36 | 1013.5 |
| 20260506235903 | 78 | 336 | 7.0 | 14.0 | 0.00 | 0.00 | 0.00 | 36 | 1013.5 |
| 20260506235405 | 78 | 320 | 6.0 | 14.0 | 0.00 | 0.00 | 0.00 | 35 | 1013.3 |
| 20260506235159 | 78 | 328 | 6.0 | 14.0 | 0.00 | 0.00 | 0.00 | 36 | 1013.3 |
| 20260506234402 | 78 | 5 | 7.0 | 14.0 | 0.00 | 0.00 | 0.00 | 35 | 1013.3 |
| 20260506233903 | 80 | 325 | 6.0 | 13.0 | 0.00 | 0.00 | 0.00 | 33 | 1013.3 |
| 20260506233402 | 80 | 306 | 4.0 | 13.0 | 0.00 | 0.00 | 0.00 | 33 | 1013.3 |
| 20260506232902 | 80 | 98 | 3.0 | 9.0 | 0.00 | 0.00 | 0.00 | 33 | 1013.3 |
| 20260506232403 | 80 | 296 | 3.0 | 9.0 | 0.00 | 0.00 | 0.00 | 33 | 1013.2 |
| 20260506231904 | 80 | 9 | 4.0 | 9.0 | 0.00 | 0.00 | 0.00 | 33 | 1013.2 |
| 20260506231403 | 81 | 229 | 3.0 | 8.0 | 0.00 | 0.00 | 0.00 | 33 | 1013.2 |
| 20260506230902 | 81 | 192 | 2.0 | 6.0 | 0.00 | 0.00 | 0.00 | 32 | 1013.3 |
| 20260506230403 | 81 | 161 | 3.0 | 7.0 | 0.00 | 0.00 | 0.00 | 32 | 1013.4 |
| 20260506225903 | 81 | 227 | 4.0 | 10.0 | 0.00 | 0.00 | 0.00 | 33 | 1013.5 |
| 20260506225751 | 80 | 291 | 4.0 | 10.0 | 0.00 | 0.00 | 0.00 | 33 | 1013.6 |
| 20260506225438 | 81 | 252 | 3.0 | 10.0 | 0.00 | 0.00 | 0.00 | 33 | 1013.5 |
| 20260506224454 | 80 | 295 | 5.0 | 9.0 | 0.00 | 0.00 | 0.00 | 33 | 1013.6 |
| 20260506224439 | 80 | 306 | 6.0 | 10.0 | 0.00 | 0.00 | 0.00 | 33 | 1013.6 |
| 20260506223402 | 80 | 294 | 4.0 | 9.0 | 0.00 | 0.00 | 0.00 | 32 | 1013.7 |
| 20260506222904 | 80 | 296 | 3.0 | 9.0 | 0.00 | 0.00 | 0.00 | 33 | 1013.7 |
| 20260506222402 | 80 | 314 | 3.0 | 9.0 | 0.00 | 0.00 | 0.00 | 33 | 1013.8 |
| 20260506221902 | 79 | 279 | 3.0 | 9.0 | 0.00 | 0.00 | 0.00 | 34 | 1013.8 |
| 20260506221403 | 79 | 328 | 3.0 | 9.0 | 0.00 | 0.00 | 0.00 | 34 | 1013.8 |
| 20260506220902 | 79 | 201 | 4.0 | 9.0 | 0.00 | 0.00 | 0.00 | 33 | 1013.9 |
| 20260506220656 | 79 | 284 | 3.0 | 9.0 | 0.00 | 0.00 | 0.00 | 34 | 1014.0 |
| 20260506215904 | 79 | 250 | 2.0 | 8.0 | 0.00 | 0.00 | 0.00 | 34 | 1014.1 |
| 20260506215403 | 78 | 234 | 3.0 | 8.0 | 0.00 | 0.00 | 0.00 | 35 | 1014.2 |
| 20260506214904 | 78 | 218 | 3.0 | 8.0 | 0.00 | 0.00 | 0.00 | 34 | 1014.2 |
| 20260506214403 | 78 | 223 | 3.0 | 8.0 | 0.00 | 0.00 | 0.00 | 34 | 1014.2 |
| 20260506213902 | 78 | 178 | 4.0 | 8.0 | 0.00 | 0.00 | 0.00 | 34 | 1014.3 |
| 20260506213405 | 78 | 205 | 3.0 | 7.0 | 0.00 | 0.00 | 0.00 | 34 | 1014.4 |
| 20260506212903 | 78 | 127 | 2.0 | 6.0 | 0.00 | 0.00 | 0.00 | 35 | 1014.5 |
| 20260506212403 | 77 | 62 | 3.0 | 7.0 | 0.00 | 0.00 | 0.00 | 36 | 1014.6 |
| 20260506212254 | 76 | 45 | 3.0 | 10.0 | 0.00 | 0.00 | 0.00 | 36 | 1014.7 |
| 20260506212250 | 77 | 87 | 3.0 | 10.0 | 0.00 | 0.00 | 0.00 | 37 | 1014.6 |
| 20260506210902 | 76 | 5 | 3.0 | 10.0 | 0.00 | 0.00 | 0.00 | 37 | 1014.7 |
| 20260506210755 | 75 | 90 | 4.0 | 10.0 | 0.00 | 0.00 | 0.00 | 38 | 1014.8 |
| 20260506210439 | 76 | 18 | 3.0 | 10.0 | 0.00 | 0.00 | 0.00 | 37 | 1014.7 |
| 20260506205402 | 75 | 331 | 5.0 | 10.0 | 0.00 | 0.00 | 0.00 | 40 | 1014.8 |
| 20260506204903 | 74 | 9 | 4.0 | 15.0 | 0.00 | 0.00 | 0.00 | 39 | 1014.8 |
| 20260506204403 | 74 | 5 | 4.0 | 15.0 | 0.00 | 0.00 | 0.00 | 38 | 1015.0 |
| 20260506203903 | 74 | 51 | 5.0 | 15.0 | 0.00 | 0.00 | 0.00 | 38 | 1015.0 |
| 20260506203402 | 74 | 335 | 6.0 | 15.0 | 0.00 | 0.00 | 0.00 | 39 | 1015.1 |
| 20260506202904 | 74 | 36 | 4.0 | 10.0 | 0.00 | 0.00 | 0.00 | 39 | 1015.0 |
| 20260506202659 | 74 | 344 | 4.0 | 9.0 | 0.00 | 0.00 | 0.00 | 40 | 1015.1 |
| 20260506201904 | 74 | 5 | 4.0 | 10.0 | 0.00 | 0.00 | 0.00 | 39 | 1015.2 |
| 20260506201403 | 74 | 90 | 4.0 | 10.0 | 0.00 | 0.00 | 0.00 | 39 | 1015.4 |
| 20260506200903 | 74 | 42 | 4.0 | 10.0 | 0.00 | 0.00 | 0.00 | 40 | 1015.4 |
| 20260506200402 | 73 | 62 | 4.0 | 10.0 | 0.00 | 0.00 | 0.00 | 40 | 1015.5 |
| 20260506195902 | 74 | 341 | 3.0 | 8.0 | 0.00 | 0.00 | 0.00 | 40 | 1015.6 |
| 20260506195402 | 74 | 319 | 3.0 | 8.0 | 0.00 | 0.00 | 0.00 | 40 | 1015.7 |
| 20260506194904 | 74 | 126 | 2.0 | 7.0 | 0.00 | 0.00 | 0.00 | 40 | 1015.8 |
| 20260506194402 | 73 | 256 | 2.0 | 7.0 | 0.00 | 0.00 | 0.00 | 40 | 1015.9 |
| 20260506193903 | 73 | 271 | 2.0 | 7.0 | 0.00 | 0.00 | 0.00 | 43 | 1016.0 |
| 20260506193402 | 73 | 232 | 2.0 | 7.0 | 0.00 | 0.00 | 0.00 | 41 | 1016.1 |
| 20260506192904 | 73 | 175 | 3.0 | 7.0 | 0.00 | 0.00 | 0.00 | 40 | 1016.1 |
| 20260506192404 | 73 | 335 | 3.0 | 7.0 | 0.00 | 0.00 | 0.00 | 41 | 1016.2 |
| 20260506192201 | 73 | 212 | 3.0 | 8.0 | 0.00 | 0.00 | 0.00 | 42 | 1016.2 |
| 20260506191401 | 72 | 279 | 2.0 | 8.0 | 0.00 | 0.00 | 0.00 | 43 | 1016.3 |
| 20260506190902 | 71 | 262 | 2.0 | 6.0 | 0.00 | 0.00 | 0.00 | 45 | 1016.3 |
| 20260506190655 | 69 | 308 | 3.0 | 6.0 | 0.00 | 0.00 | 0.00 | 45 | 1016.4 |
| 20260506190200 | 69 | 304 | 3.0 | 8.0 | 0.00 | 0.00 | 0.00 | 44 | 1016.4 |
| 20260506185402 | 68 | 314 | 3.0 | 8.0 | 0.00 | 0.00 | 0.00 | 46 | 1016.5 |
| 20260506184904 | 67 | 59 | 4.0 | 8.0 | 0.00 | 0.00 | 0.00 | 46 | 1016.5 |
| 20260506184403 | 68 | 288 | 3.0 | 8.0 | 0.00 | 0.00 | 0.00 | 47 | 1016.6 |
| 20260506183904 | 68 | 22 | 3.0 | 8.0 | 0.00 | 0.00 | 0.00 | 47 | 1016.7 |
| 20260506183404 | 68 | 308 | 3.0 | 8.0 | 0.00 | 0.00 | 0.00 | 47 | 1016.7 |
| 20260506182904 | 68 | 15 | 3.0 | 8.0 | 0.00 | 0.00 | 0.00 | 48 | 1016.9 |
| 20260506182403 | 67 | 14 | 3.0 | 8.0 | 0.00 | 0.00 | 0.00 | 50 | 1016.9 |
| 20260506182005 | 67 | 330 | 3.0 | 11.0 | 0.00 | 0.00 | 0.00 | 49 | 1017.0 |
| 20260506181944 | 67 | 9 | 3.0 | 8.0 | 0.00 | 0.00 | 0.00 | 50 | 1016.9 |
| 20260506180905 | 66 | 30 | 3.0 | 11.0 | 0.00 | 0.00 | 0.00 | 52 | 1017.0 |
| 20260506180404 | 65 | 290 | 4.0 | 11.0 | 0.00 | 0.00 | 0.00 | 54 | 1017.0 |
| 20260506175903 | 64 | 319 | 5.0 | 11.0 | 0.00 | 0.00 | 0.00 | 53 | 1017.0 |
| 20260506175402 | 64 | 336 | 5.0 | 10.0 | 0.00 | 0.00 | 0.00 | 53 | 1017.0 |
| 20260506174901 | 64 | 313 | 5.0 | 10.0 | 0.00 | 0.00 | 0.00 | 54 | 1017.0 |
| 20260506174402 | 65 | 355 | 4.0 | 8.0 | 0.00 | 0.00 | 0.00 | 52 | 1017.0 |
| 20260506174157 | 65 | 307 | 4.0 | 8.0 | 0.00 | 0.00 | 0.00 | 54 | 1017.0 |
| 20260506173402 | 65 | 0 | 4.0 | 8.0 | 0.00 | 0.00 | 0.00 | 54 | 1017.0 |
| 20260506172902 | 65 | 322 | 3.0 | 8.0 | 0.00 | 0.00 | 0.00 | 53 | 1017.1 |
| 20260506172402 | 65 | 317 | 2.0 | 8.0 | 0.00 | 0.00 | 0.00 | 54 | 1017.1 |
| 20260506171902 | 65 | 338 | 1.0 | 8.0 | 0.00 | 0.00 | 0.00 | 55 | 1017.2 |
| 20260506171403 | 64 | 137 | 1.0 | 6.0 | 0.00 | 0.00 | 0.00 | 55 | 1017.1 |
| 20260506171158 | 63 | 266 | 2.0 | 7.0 | 0.00 | 0.00 | 0.00 | 56 | 1017.2 |
| 20260506170658 | 63 | 295 | 2.0 | 7.0 | 0.00 | 0.00 | 0.00 | 57 | 1017.2 |
| 20260506165902 | 63 | 292 | 2.0 | 7.0 | 0.00 | 0.00 | 0.00 | 59 | 1017.1 |
| 20260506165656 | 62 | 273 | 3.0 | 7.0 | 0.00 | 0.00 | 0.00 | 60 | 1017.2 |
| 20260506164903 | 61 | 290 | 3.0 | 6.0 | 0.00 | 0.00 | 0.00 | 61 | 1017.1 |
| 20260506164504 | 59 | 5 | 3.0 | 5.0 | 0.00 | 0.00 | 0.00 | 62 | 1017.2 |
| 20260506164444 | 60 | 330 | 3.0 | 6.0 | 0.00 | 0.00 | 0.00 | 62 | 1017.2 |
| 20260506163657 | 59 | 313 | 3.0 | 5.0 | 0.00 | 0.00 | 0.00 | 62 | 1017.2 |
| 20260506163157 | 59 | 292 | 4.0 | 5.0 | 0.00 | 0.00 | 0.00 | 63 | 1017.1 |
| 20260506162401 | 60 | 351 | 3.0 | 6.0 | 0.00 | 0.00 | 0.00 | 62 | 1017.2 |
| 20260506161902 | 60 | 296 | 2.0 | 6.0 | 0.00 | 0.00 | 0.00 | 64 | 1017.1 |
| 20260506161401 | 59 | 332 | 3.0 | 6.0 | 0.00 | 0.00 | 0.00 | 67 | 1017.2 |
| 20260506160902 | 59 | 344 | 2.0 | 6.0 | 0.00 | 0.00 | 0.00 | 66 | 1017.2 |
| 20260506160700 | 60 | 0 | 1.0 | 4.0 | 0.00 | 0.00 | 0.00 | 71 | 1017.2 |
| 20260506155902 | 59 | 72 | 1.0 | 4.0 | 0.00 | 0.00 | 0.00 | 74 | 1017.1 |
| 20260506155401 | 57 | 311 | 1.0 | 4.0 | 0.00 | 0.00 | 0.00 | 78 | 1017.1 |
| 20260506154902 | 56 | 317 | 1.0 | 4.0 | 0.00 | 0.00 | 0.00 | 79 | 1017.1 |
| 20260506154403 | 56 | 5 | 1.0 | 3.0 | 0.00 | 0.00 | 0.00 | 81 | 1017.1 |
| 20260506153902 | 55 | 110 | 1.0 | 3.0 | 0.00 | 0.00 | 0.00 | 84 | 1017.1 |
| 20260506153403 | 55 | 61 | 1.0 | 3.0 | 0.00 | 0.00 | 0.00 | 86 | 1017.1 |
| 20260506152903 | 54 | 5 | 1.0 | 3.0 | 0.00 | 0.00 | 0.00 | 87 | 1017.0 |
| 20260506152402 | 54 | 322 | 1.0 | 3.0 | 0.00 | 0.00 | 0.00 | 88 | 1017.1 |
| 20260506152157 | 53 | 325 | 1.0 | 3.0 | 0.00 | 0.00 | 0.00 | 89 | 1017.1 |
| 20260506151402 | 53 | 319 | 1.0 | 4.0 | 0.00 | 0.00 | 0.00 | 90 | 1017.1 |
| 20260506150904 | 52 | 321 | 1.0 | 4.0 | 0.00 | 0.00 | 0.00 | 90 | 1017.2 |
| 20260506150403 | 52 | 336 | 1.0 | 3.0 | 0.00 | 0.00 | 0.00 | 91 | 1017.2 |
| 20260506145902 | 51 | 338 | 1.0 | 3.0 | 0.00 | 0.00 | 0.00 | 91 | 1017.2 |
| 20260506145403 | 51 | 309 | 1.0 | 3.0 | 0.00 | 0.00 | 0.00 | 91 | 1017.2 |
| 20260506144902 | 50 | 339 | 1.0 | 3.0 | 0.00 | 0.00 | 0.00 | 91 | 1017.1 |
| 20260506144655 | 50 | 336 | 1.0 | 2.0 | 0.00 | 0.00 | 0.00 | 91 | 1017.1 |
| 20260506143903 | 49 | 330 | 1.0 | 2.0 | 0.00 | 0.00 | 0.00 | 91 | 1017.2 |
| 20260506143403 | 49 | 290 | 1.0 | 2.0 | 0.00 | 0.00 | 0.00 | 91 | 1017.1 |
| 20260506142902 | 48 | 290 | 1.0 | 2.0 | 0.00 | 0.00 | 0.00 | 91 | 1017.1 |
| 20260506142403 | 48 | 266 | 0.0 | 2.0 | 0.00 | 0.00 | 0.00 | 91 | 1017.0 |
| 20260506141902 | 47 | 163 | 0.0 | 2.0 | 0.00 | 0.00 | 0.00 | 91 | 1016.9 |
| 20260506141402 | 47 | 163 | 0.0 | 2.0 | 0.00 | 0.00 | 0.00 | 90 | 1016.9 |
| 20260506140902 | 46 | 163 | 0.0 | 2.0 | 0.00 | 0.00 | 0.00 | 91 | 1017.0 |
| 20260506140402 | 46 | 150 | 0.0 | 1.0 | 0.00 | 0.00 | 0.00 | 91 | 1017.0 |
| 20260506135902 | 45 | 127 | 0.0 | 0.0 | 0.00 | 0.00 | 0.00 | 90 | 1016.9 |
| 20260506135402 | 45 | 127 | 0.0 | 2.0 | 0.00 | 0.00 | 0.00 | 90 | 1016.9 |
| 20260506134903 | 44 | 127 | 0.0 | 2.0 | 0.00 | 0.00 | 0.00 | 89 | 1016.9 |
| 20260506134402 | 44 | 127 | 0.0 | 2.0 | 0.00 | 0.00 | 0.00 | 89 | 1016.8 |
| 20260506133905 | 44 | 127 | 1.0 | 2.0 | 0.00 | 0.00 | 0.00 | 89 | 1016.8 |
| 20260506133652 | 45 | 127 | 1.0 | 2.0 | 0.00 | 0.00 | 0.00 | 89 | 1016.7 |
| 20260506132901 | 45 | 127 | 0.0 | 2.0 | 0.00 | 0.00 | 0.00 | 89 | 1016.7 |
| 20260506132652 | 45 | 127 | 0.0 | 1.0 | 0.00 | 0.00 | 0.00 | 89 | 1016.6 |
| 20260506132202 | 45 | 127 | 0.0 | 2.0 | 0.00 | 0.01 | 0.00 | 89 | 1016.6 |
| 20260506131403 | 45 | 127 | 1.0 | 2.0 | 0.00 | 0.01 | 0.00 | 89 | 1016.7 |
| 20260506130903 | 45 | 127 | 1.0 | 2.0 | 0.00 | 0.01 | 0.00 | 89 | 1016.6 |
| 20260506130402 | 45 | 127 | 1.0 | 2.0 | 0.00 | 0.01 | 0.00 | 89 | 1016.5 |
| 20260506125903 | 45 | 127 | 1.0 | 2.0 | 0.00 | 0.01 | 0.00 | 89 | 1016.5 |
| 20260506125402 | 45 | 127 | 1.0 | 2.0 | 0.00 | 0.01 | 0.00 | 89 | 1016.6 |
| 20260506124903 | 45 | 127 | 1.0 | 2.0 | 0.00 | 0.01 | 0.00 | 89 | 1016.5 |
| 20260506124403 | 45 | 127 | 1.0 | 2.0 | 0.00 | 0.01 | 0.00 | 89 | 1016.6 |
| 20260506124150 | 45 | 127 | 1.0 | 2.0 | 0.00 | 0.01 | 0.00 | 89 | 1016.5 |
| 20260506123403 | 45 | 127 | 2.0 | 2.0 | 0.00 | 0.01 | 0.00 | 89 | 1016.4 |
| 20260506122903 | 45 | 127 | 1.0 | 2.0 | 0.00 | 0.01 | 0.00 | 88 | 1016.4 |
| 20260506122403 | 45 | 127 | 1.0 | 2.0 | 0.00 | 0.01 | 0.00 | 88 | 1016.2 |
| 20260506121902 | 45 | 127 | 1.0 | 2.0 | 0.00 | 0.02 | 0.00 | 88 | 1016.3 |
| 20260506121402 | 45 | 127 | 1.0 | 2.0 | 0.00 | 0.02 | 0.00 | 88 | 1016.2 |
| 20260506120904 | 45 | 127 | 1.0 | 2.0 | 0.00 | 0.02 | 0.00 | 88 | 1016.3 |
| 20260506120403 | 46 | 127 | 1.0 | 2.0 | 0.00 | 0.02 | 0.00 | 88 | 1016.2 |
| 20260506115903 | 46 | 127 | 0.0 | 2.0 | 0.00 | 0.02 | 0.00 | 88 | 1016.2 |
| 20260506115654 | 46 | 127 | 0.0 | 2.0 | 0.00 | 0.02 | 0.00 | 88 | 1016.3 |
| 20260506114902 | 46 | 127 | 0.0 | 2.0 | 0.00 | 0.02 | 0.00 | 88 | 1016.3 |
| 20260506114403 | 46 | 127 | 0.0 | 1.0 | 0.00 | 0.02 | 0.00 | 88 | 1016.3 |
| 20260506113902 | 46 | 127 | 0.0 | 1.0 | 0.00 | 0.02 | 0.00 | 88 | 1016.3 |
| 20260506113404 | 46 | 127 | 0.0 | 2.0 | 0.00 | 0.02 | 0.00 | 88 | 1016.4 |
| 20260506113150 | 46 | 127 | 0.0 | 2.0 | 0.00 | 0.02 | 0.00 | 88 | 1016.3 |
| 20260506112404 | 46 | 127 | 1.0 | 2.0 | 0.00 | 0.02 | 0.00 | 88 | 1016.3 |
| 20260506111903 | 46 | 127 | 1.0 | 2.0 | 0.00 | 0.02 | 0.00 | 88 | 1016.3 |
| 20260506111452 | 46 | 127 | 1.0 | 2.0 | 0.00 | 0.02 | 0.00 | 87 | 1016.2 |
| 20260506111435 | 46 | 127 | 1.0 | 2.0 | 0.00 | 0.02 | 0.00 | 88 | 1016.3 |
| 20260506110403 | 46 | 127 | 1.0 | 2.0 | 0.00 | 0.02 | 0.00 | 87 | 1016.2 |
| 20260506110152 | 46 | 127 | 1.0 | 2.0 | 0.00 | 0.02 | 0.00 | 87 | 1016.1 |
| 20260506105405 | 46 | 127 | 1.0 | 2.0 | 0.00 | 0.02 | 0.00 | 87 | 1016.2 |
| 20260506104904 | 47 | 127 | 1.0 | 2.0 | 0.00 | 0.02 | 0.00 | 87 | 1016.3 |
| 20260506104443 | 47 | 127 | 1.0 | 2.0 | 0.00 | 0.02 | 0.00 | 87 | 1016.2 |
| 20260506104431 | 47 | 127 | 1.0 | 2.0 | 0.00 | 0.02 | 0.00 | 87 | 1016.3 |
| 20260506103402 | 47 | 127 | 1.0 | 2.0 | 0.00 | 0.03 | 0.00 | 87 | 1016.2 |
| 20260506102903 | 47 | 127 | 1.0 | 2.0 | 0.00 | 0.03 | 0.00 | 87 | 1016.2 |
| 20260506102653 | 47 | 127 | 1.0 | 2.0 | 0.00 | 0.03 | 0.00 | 87 | 1016.2 |
| 20260506101902 | 47 | 138 | 1.0 | 3.0 | 0.00 | 0.03 | 0.00 | 86 | 1016.1 |
| 20260506101403 | 47 | 137 | 1.0 | 3.0 | 0.00 | 0.03 | 0.00 | 86 | 1016.1 |
| 20260506101154 | 47 | 136 | 1.0 | 3.0 | 0.00 | 0.03 | 0.00 | 86 | 1016.0 |
| 20260506100405 | 48 | 138 | 2.0 | 3.0 | 0.00 | 0.03 | 0.00 | 86 | 1016.1 |
| 20260506095902 | 48 | 132 | 2.0 | 3.0 | 0.00 | 0.03 | 0.00 | 86 | 1016.1 |
| 20260506095653 | 48 | 132 | 1.0 | 3.0 | 0.00 | 0.03 | 0.00 | 86 | 1016.1 |
| 20260506095152 | 48 | 132 | 1.0 | 3.0 | 0.00 | 0.03 | 0.00 | 86 | 1016.1 |
| 20260506094402 | 48 | 132 | 1.0 | 3.0 | 0.00 | 0.03 | 0.00 | 86 | 1016.2 |
| 20260506093904 | 48 | 132 | 1.0 | 3.0 | 0.00 | 0.03 | 0.00 | 86 | 1016.1 |
| 20260506093404 | 49 | 111 | 1.0 | 3.0 | 0.00 | 0.03 | 0.00 | 86 | 1016.1 |
| 20260506092903 | 49 | 128 | 2.0 | 3.0 | 0.00 | 0.03 | 0.00 | 86 | 1016.1 |
| 20260506092403 | 49 | 84 | 2.0 | 3.0 | 0.00 | 0.03 | 0.00 | 86 | 1016.1 |
| 20260506091902 | 49 | 86 | 1.0 | 3.0 | 0.00 | 0.03 | 0.00 | 86 | 1016.1 |
| 20260506091403 | 49 | 84 | 0.0 | 2.0 | 0.00 | 0.03 | 0.00 | 85 | 1016.2 |
| 20260506090902 | 49 | 77 | 1.0 | 2.0 | 0.00 | 0.03 | 0.00 | 85 | 1016.3 |
| 20260506090402 | 49 | 77 | 1.0 | 2.0 | 0.00 | 0.03 | 0.00 | 85 | 1016.3 |
| 20260506085904 | 49 | 80 | 1.0 | 2.0 | 0.00 | 0.03 | 0.00 | 84 | 1016.3 |
| 20260506085402 | 49 | 18 | 0.0 | 2.0 | 0.00 | 0.03 | 0.00 | 84 | 1016.3 |
| 20260506085152 | 49 | 15 | 0.0 | 2.0 | 0.00 | 0.04 | 0.00 | 84 | 1016.4 |
| 20260506084449 | 49 | 15 | 1.0 | 2.0 | 0.00 | 0.04 | 0.00 | 84 | 1016.4 |
| 20260506084433 | 49 | 15 | 1.0 | 2.0 | 0.00 | 0.04 | 0.00 | 84 | 1016.4 |
| 20260506083403 | 49 | 138 | 1.0 | 2.0 | 0.00 | 0.04 | 0.00 | 84 | 1016.4 |
| 20260506082903 | 49 | 138 | 1.0 | 2.0 | 0.00 | 0.04 | 0.00 | 83 | 1016.4 |
| 20260506082402 | 49 | 138 | 1.0 | 2.0 | 0.00 | 0.04 | 0.00 | 83 | 1016.5 |
| 20260506081902 | 49 | 138 | 0.0 | 1.0 | 0.00 | 0.04 | 0.00 | 82 | 1016.4 |
| 20260506081403 | 50 | 138 | 0.0 | 1.0 | 0.00 | 0.04 | 0.00 | 82 | 1016.5 |
| 20260506080902 | 50 | 138 | 0.0 | 1.0 | 0.00 | 0.04 | 0.00 | 82 | 1016.6 |
| 20260506080654 | 50 | 138 | 1.0 | 1.0 | 0.00 | 0.04 | 0.00 | 81 | 1016.7 |
| 20260506080158 | 50 | 138 | 0.0 | 1.0 | 0.00 | 0.04 | 0.00 | 81 | 1016.7 |
| 20260506072903 | 51 | 140 | 2.0 | 3.0 | 0.00 | 0.05 | 0.00 | 80 | 1016.8 |
| 20260506072403 | 51 | 145 | 2.0 | 3.0 | 0.00 | 0.05 | 0.00 | 80 | 1016.7 |
| 20260506071903 | 51 | 146 | 1.0 | 3.0 | 0.00 | 0.05 | 0.00 | 80 | 1016.7 |
| 20260506071402 | 51 | 117 | 1.0 | 3.0 | 0.00 | 0.05 | 0.00 | 80 | 1016.6 |
| 20260506070901 | 52 | 147 | 1.0 | 2.0 | 0.00 | 0.05 | 0.00 | 79 | 1016.6 |